When you browse on this site, cookies collect data to enhance your experience and personalize the content and advertising you see.
Visit our Privacy Policy to learn more. By continuing to use the site, you agree to this use of cookies and data.
  • Em Portugal
  • Lista de países
  • Para 7 dias
  • Temperatura da água
  • Mapas de satélite
  • Mapa do tempo
  • Widgets de tempo
  • user-avatar
    Iniciar Sessão

    Previsão horária em Monaco

    Hoje, 23 Maio, Quinta-feira

    Tempo Temperatura Precipitação Vento Pressão Humidade
    00:00 +16°C° 0 mm 1 m/s 752 mmHg 84%
    01:00 +16°C° 0 mm 1 m/s 753 mmHg 83%
    02:00 +16°C° 0 mm 1 m/s 753 mmHg 83%
    03:00 +16°C° 0 mm 1 m/s 753 mmHg 82%
    04:00 +16°C° 0 mm 1 m/s 753 mmHg 78%
    05:00 +18°C° 0 mm 1 m/s 753 mmHg 75%
    06:00 +19°C° 0 mm 1 m/s 753 mmHg 71%
    07:00 +20°C° 0 mm 2 m/s 753 mmHg 68%
    08:00 +21°C° 0 mm 2 m/s 753 mmHg 65%
    09:00 +22°C° 0 mm 3 m/s 753 mmHg 63%
    10:00 +22°C° 0.1 mm 3 m/s 753 mmHg 63%
    11:00 +22°C° 0.1 mm 3 m/s 753 mmHg 64%
    12:00 +24°C° 0.1 mm 3 m/s 753 mmHg 64%
    13:00 +24°C° 0 mm 3 m/s 753 mmHg 65%
    14:00 +24°C° 0 mm 3 m/s 752 mmHg 66%
    15:00 +23°C° 0 mm 2 m/s 752 mmHg 66%
    16:00 +23°C° 0 mm 2 m/s 752 mmHg 70%
    17:00 +21°C° 0 mm 2 m/s 752 mmHg 73%
    18:00 +20°C° 0 mm 2 m/s 751 mmHg 76%
    19:00 +20°C° 0 mm 2 m/s 752 mmHg 79%
    20:00 +20°C° 0 mm 1 m/s 752 mmHg 82%
    21:00 +19°C° 0 mm 1 m/s 752 mmHg 85%
    22:00 +19°C° 0 mm 1 m/s 752 mmHg 84%
    23:00 +19°C° 0 mm 1 m/s 752 mmHg 84%

    Amanhã, 24 Maio, Sexta-feira

    Tempo Temperatura Precipitação Vento Pressão Humidade
    00:00 +18°C° 0 mm 1 m/s 752 mmHg 83%
    01:00 +18°C° 0 mm 1 m/s 752 mmHg 83%
    02:00 +18°C° 0 mm 1 m/s 751 mmHg 83%
    03:00 +17°C° 0 mm 2 m/s 751 mmHg 83%
    04:00 +18°C° 0 mm 2 m/s 751 mmHg 81%
    05:00 +18°C° 0 mm 2 m/s 751 mmHg 78%
    06:00 +19°C° 0 mm 2 m/s 751 mmHg 75%
    07:00 +20°C° 0 mm 2 m/s 751 mmHg 73%
    08:00 +21°C° 0 mm 2 m/s 751 mmHg 70%
    09:00 +22°C° 0 mm 3 m/s 751 mmHg 68%
    10:00 +22°C° 0 mm 3 m/s 751 mmHg 69%
    11:00 +22°C° 0 mm 3 m/s 751 mmHg 69%
    12:00 +22°C° 0 mm 3 m/s 751 mmHg 70%
    13:00 +22°C° 0.1 mm 3 m/s 751 mmHg 69%
    14:00 +22°C° 0.1 mm 3 m/s 750 mmHg 69%
    15:00 +22°C° 0.1 mm 3 m/s 750 mmHg 68%
    16:00 +21°C° 0 mm 2 m/s 750 mmHg 70%
    17:00 +21°C° 0 mm 2 m/s 750 mmHg 72%
    18:00 +20°C° 0 mm 2 m/s 750 mmHg 75%
    19:00 +20°C° 0 mm 1 m/s 750 mmHg 77%
    20:00 +20°C° 0 mm 1 m/s 750 mmHg 79%
    21:00 +17°C° 0 mm 0 m/s 750 mmHg 82%
    22:00 +17°C° 0 mm 0 m/s 750 mmHg 82%
    23:00 +18°C° 0 mm 1 m/s 750 mmHg 82%

    Depois de amanhã, 25 Maio, Sábado

    Tempo Temperatura Precipitação Vento Pressão Humidade
    00:00 +18°C° 0 mm 1 m/s 750 mmHg 82%
    01:00 +18°C° 0 mm 1 m/s 750 mmHg 82%
    02:00 +17°C° 0 mm 2 m/s 750 mmHg 83%
    03:00 +16°C° 0 mm 2 m/s 750 mmHg 84%
    04:00 +17°C° 0 mm 2 m/s 750 mmHg 81%
    05:00 +18°C° 0 mm 2 m/s 750 mmHg 78%
    06:00 +19°C° 0 mm 2 m/s 750 mmHg 75%
    07:00 +20°C° 0 mm 2 m/s 750 mmHg 70%
    08:00 +21°C° 0 mm 3 m/s 750 mmHg 66%
    09:00 +22°C° 0 mm 3 m/s 750 mmHg 62%
    10:00 +22°C° 0.1 mm 3 m/s 750 mmHg 63%
    11:00 +22°C° 0.1 mm 3 m/s 750 mmHg 64%
    12:00 +22°C° 0.1 mm 3 m/s 750 mmHg 65%
    13:00 +22°C° 0.1 mm 3 m/s 750 mmHg 65%
    14:00 +22°C° 0.1 mm 3 m/s 749 mmHg 65%
    15:00 +24°C° 0.1 mm 2 m/s 749 mmHg 64%
    16:00 +23°C° 0 mm 2 m/s 749 mmHg 68%
    17:00 +21°C° 0 mm 2 m/s 749 mmHg 71%
    18:00 +21°C° 0 mm 1 m/s 749 mmHg 74%
    19:00 +21°C° 0 mm 1 m/s 749 mmHg 76%
    20:00 +20°C° 0 mm 1 m/s 750 mmHg 78%
    21:00 +19°C° 0 mm 1 m/s 750 mmHg 80%
    22:00 +18°C° 0 mm 2 m/s 750 mmHg 79%
    23:00 +18°C° 0 mm 2 m/s 749 mmHg 79%

    26 Maio, Domingo

    Tempo Temperatura Precipitação Vento Pressão Humidade
    00:00 +17°C° 0 mm 2 m/s 749 mmHg 78%
    01:00 +17°C° 0 mm 2 m/s 749 mmHg 74%
    02:00 +17°C° 0 mm 2 m/s 749 mmHg 71%
    03:00 +17°C° 0 mm 2 m/s 749 mmHg 68%
    04:00 +17°C° 0 mm 2 m/s 749 mmHg 64%
    05:00 +18°C° 0 mm 2 m/s 749 mmHg 59%
    06:00 +19°C° 0 mm 2 m/s 749 mmHg 55%
    07:00 +20°C° 0 mm 2 m/s 749 mmHg 55%
    08:00 +21°C° 0 mm 2 m/s 749 mmHg 56%
    09:00 +22°C° 0 mm 3 m/s 750 mmHg 56%
    10:00 +22°C° 0.1 mm 3 m/s 749 mmHg 56%
    11:00 +24°C° 0.1 mm 3 m/s 749 mmHg 57%
    12:00 +24°C° 0.1 mm 2 m/s 749 mmHg 58%
    13:00 +24°C° 0.1 mm 2 m/s 749 mmHg 57%
    14:00 +24°C° 0.1 mm 3 m/s 748 mmHg 57%
    15:00 +24°C° 0.1 mm 3 m/s 748 mmHg 57%
    16:00 +24°C° 0 mm 3 m/s 748 mmHg 59%
    17:00 +22°C° 0 mm 3 m/s 748 mmHg 61%
    18:00 +22°C° 0 mm 3 m/s 748 mmHg 63%
    19:00 +21°C° 0 mm 3 m/s 748 mmHg 63%
    20:00 +20°C° 0 mm 3 m/s 748 mmHg 62%
    21:00 +19°C° 0 mm 3 m/s 748 mmHg 62%
    22:00 +19°C° 0 mm 3 m/s 748 mmHg 59%
    23:00 +19°C° 0 mm 3 m/s 747 mmHg 56%

    27 Maio, Segunda-feira

    Tempo Temperatura Precipitação Vento Pressão Humidade
    00:00 +18°C° 0 mm 3 m/s 747 mmHg 53%
    01:00 +18°C° 0 mm 2 m/s 747 mmHg 53%
    02:00 +18°C° 0 mm 2 m/s 746 mmHg 53%
    03:00 +18°C° 0 mm 2 m/s 746 mmHg 53%
    04:00 +20°C° 0 mm 1 m/s 746 mmHg 52%
    05:00 +21°C° 0 mm 1 m/s 746 mmHg 52%
    06:00 +22°C° 0 mm 1 m/s 746 mmHg 52%
    07:00 +23°C° 0 mm 1 m/s 746 mmHg 50%
    08:00 +24°C° 0 mm 2 m/s 746 mmHg 48%
    09:00 +25°C° 0 mm 3 m/s 746 mmHg 46%
    10:00 +25°C° 0 mm 3 m/s 745 mmHg 47%
    11:00 +25°C° 0 mm 3 m/s 745 mmHg 49%
    12:00 +25°C° 0 mm 3 m/s 745 mmHg 51%
    13:00 +25°C° 0 mm 4 m/s 745 mmHg 53%
    14:00 +25°C° 0 mm 4 m/s 744 mmHg 55%
    15:00 +23°C° 0 mm 4 m/s 744 mmHg 57%
    16:00 +23°C° 0 mm 4 m/s 744 mmHg 60%
    17:00 +22°C° 0 mm 3 m/s 744 mmHg 64%
    18:00 +21°C° 0 mm 3 m/s 744 mmHg 68%
    19:00 +21°C° 0 mm 2 m/s 744 mmHg 71%
    20:00 +21°C° 0 mm 1 m/s 744 mmHg 75%
    21:00 +20°C° 0 mm 1 m/s 744 mmHg 78%
    22:00 +20°C° 0 mm 1 m/s 744 mmHg 80%
    23:00 +19°C° 0 mm 1 m/s 744 mmHg 81%

    28 Maio, Terça-feira

    Tempo Temperatura Precipitação Vento Pressão Humidade
    00:00 +19°C° 0 mm 1 m/s 744 mmHg 83%
    01:00 +19°C° 0 mm 1 m/s 743 mmHg 83%
    02:00 +18°C° 0 mm 2 m/s 743 mmHg 83%
    03:00 +18°C° 0 mm 2 m/s 743 mmHg 84%
    04:00 +18°C° 0 mm 2 m/s 743 mmHg 81%
    05:00 +20°C° 0 mm 1 m/s 744 mmHg 78%
    06:00 +20°C° 0 mm 1 m/s 744 mmHg 75%
    07:00 +21°C° 0 mm 1 m/s 744 mmHg 74%
    08:00 +21°C° 0 mm 1 m/s 744 mmHg 74%
    09:00 +20°C° 0 mm 2 m/s 744 mmHg 73%
    10:00 +20°C° 0 mm 2 m/s 744 mmHg 70%
    11:00 +21°C° 0 mm 2 m/s 745 mmHg 66%
    12:00 +21°C° 0 mm 2 m/s 745 mmHg 63%
    13:00 +21°C° 0 mm 4 m/s 745 mmHg 61%
    14:00 +22°C° 0 mm 6 m/s 745 mmHg 59%
    15:00 +22°C° 0 mm 7 m/s 745 mmHg 57%
    16:00 +20°C° 0.1 mm 7 m/s 745 mmHg 65%
    17:00 +19°C° 0.1 mm 6 m/s 746 mmHg 72%
    18:00 +16°C° 0.1 mm 5 m/s 746 mmHg 79%
    19:00 +17°C° 0 mm 4 m/s 746 mmHg 81%
    20:00 +15°C° 0 mm 4 m/s 747 mmHg 84%
    21:00 +16°C° 0 mm 3 m/s 747 mmHg 86%
    22:00 +16°C° 0 mm 2 m/s 747 mmHg 86%
    23:00 +16°C° 0 mm 2 m/s 747 mmHg 86%
    Mostrar mais